FW8519 Weather Reports


Display with metric or nautical units.
time (UTC)temp
F
wind
direction
speed
MPH
gust
MPH
rain 1hr
in
rain 24hr
in
rain mn
in
humidity
%
barometer
mb
20260506084017 44 180 2.0 6.0 0.00 0.02 0.00 75 1016.9
20260506083516 43 225 3.0 6.0 0.00 0.02 0.00 74 1016.9
20260506083017 43 225 5.0 10.0 0.00 0.02 0.00 73 1017.0
20260506082516 44 248 3.0 5.0 0.00 0.02 0.00 73 1016.9
20260506082017 44 90 1.0 3.0 0.00 0.02 0.00 72 1017.0
20260506081537 44 113 2.0 4.0 0.00 0.02 0.00 73 1017.0
20260506081036 44 113 1.0 2.0 0.00 0.02 0.00 75 1017.1
20260506080516 43 225 2.0 3.0 0.00 0.02 0.00 75 1017.0
20260506073516 42 0.0 1.0 0.00 0.02 0.00 83 1017.3
20260506073016 41 0.0 1.0 0.00 0.02 0.00 83 1017.2
20260506072517 41 0.0 1.0 0.00 0.02 0.00 86 1017.2
20260506072036 41 0.0 1.0 0.00 0.02 0.00 87 1017.2
20260506071517 40 0.0 1.0 0.00 0.02 0.00 86 1017.2
20260506071016 40 203 1.0 2.0 0.00 0.02 0.00 86 1017.3
20260506070517 40 0.0 1.0 0.00 0.02 0.00 87 1017.3
20260506062517 38 0.0 1.0 0.00 0.02 0.00 88 1017.3
20260506062016 37 0.0 1.0 0.00 0.02 0.00 88 1017.4
20260506061537 37 0.0 1.0 0.00 0.02 0.00 89 1017.3
20260506061016 37 0.0 1.0 0.00 0.02 0.00 88 1017.3
20260506060516 37 0.0 1.0 0.00 0.02 0.00 89 1017.3
20260506051016 37 90 1.0 2.0 0.00 0.02 0.00 87 1017.4
20260506050516 37 113 1.0 2.0 0.00 0.02 0.00 87 1017.4
20260506045016 37 0.0 0.0 0.00 0.02 0.00 87 1017.4
20260506044516 37 0.0 0.0 0.00 0.02 0.00 87 1017.4
20260506044016 37 0.0 0.0 0.00 0.02 0.00 87 1017.4
20260506043516 37 0.0 0.0 0.00 0.02 0.00 88 1017.4
20260506043016 36 0.0 1.0 0.00 0.02 0.00 88 1017.3
20260506042536 36 0.0 0.0 0.00 0.02 0.00 88 1017.3
20260506042016 36 0.0 0.0 0.00 0.02 0.00 88 1017.3
20260506041516 36 68 1.0 1.0 0.00 0.02 0.00 87 1017.3
20260506041016 37 68 1.0 2.0 0.00 0.02 0.00 87 1017.3
20260506040516 37 0.0 1.0 0.00 0.02 0.00 86 1017.4
20260506040016 37 0.0 1.0 0.00 0.02 0.00 85 1017.4
20260506035516 37 0.0 1.0 0.00 0.02 0.00 86 1017.3
20260506035016 37 293 1.0 1.0 0.00 0.02 0.00 86 1017.3
20260506034516 37 293 1.0 1.0 0.00 0.02 0.00 86 1017.4
20260506034016 37 0.0 1.0 0.00 0.02 0.00 86 1017.3
20260506033516 37 293 1.0 1.0 0.00 0.02 0.00 86 1017.3
20260506033016 37 293 1.0 1.0 0.00 0.02 0.00 86 1017.3
20260506032516 37 0.0 1.0 0.00 0.02 0.00 86 1017.4
20260506032036 37 0.0 1.0 0.00 0.02 0.00 85 1017.4
20260506031516 37 0.0 0.0 0.00 0.02 0.00 85 1017.5
20260506031016 37 293 1.0 2.0 0.00 0.02 0.00 85 1017.5
20260506030516 37 293 1.0 2.0 0.00 0.02 0.00 84 1017.5
20260506030016 37 0.0 1.0 0.00 0.02 0.00 83 1017.5
20260506025516 37 0.0 1.0 0.00 0.02 0.00 83 1017.5
20260506025036 37 0.0 1.0 0.00 0.02 0.00 83 1017.5
20260506024516 37 0.0 0.0 0.00 0.02 0.00 83 1017.6
20260506024016 37 0.0 0.0 0.00 0.02 0.00 84 1017.5
20260506023536 36 0.0 1.0 0.00 0.02 0.00 84 1017.5
20260506023016 37 68 1.0 2.0 0.00 0.02 0.00 84 1017.5
20260506022536 37 68 1.0 1.0 0.00 0.02 0.00 82 1017.5
20260506022016 38 0.0 0.0 0.00 0.02 0.00 81 1017.5
20260506021516 38 0.0 1.0 0.00 0.02 0.00 81 1017.5
20260506021016 38 0.0 1.0 0.00 0.02 0.00 81 1017.6
20260506020516 38 0.0 1.0 0.00 0.02 0.00 80 1017.5
20260506020016 38 0.0 1.0 0.00 0.02 0.00 78 1017.6
20260506015516 38 0.0 1.0 0.00 0.02 0.00 78 1017.5
20260506015016 38 0.0 0.0 0.00 0.02 0.00 79 1017.6
20260506014516 38 0.0 0.0 0.00 0.02 0.00 80 1017.6
20260506014016 38 0.0 1.0 0.00 0.02 0.00 81 1017.6
20260506013536 38 0.0 1.0 0.00 0.02 0.00 81 1017.8
20260506013036 38 0.0 1.0 0.00 0.02 0.00 81 1017.9
20260506012516 38 0.0 1.0 0.00 0.02 0.00 80 1017.9
20260506012016 38 0.0 0.0 0.00 0.02 0.00 79 1017.9
20260506011516 38 0.0 0.0 0.00 0.02 0.00 79 1017.9
20260506011016 38 0.0 0.0 0.00 0.02 0.00 79 1017.9
20260506010516 38 0.0 0.0 0.00 0.02 0.00 79 1018.0
20260506010016 38 0.0 0.0 0.00 0.02 0.00 79 1017.9
20260506005516 38 0.0 0.0 0.00 0.02 0.00 79 1018.0
20260506005015 38 0.0 1.0 0.00 0.02 0.00 79 1018.0
20260506004516 38 0.0 1.0 0.00 0.02 0.00 79 1018.0
20260506004036 39 0.0 0.0 0.00 0.02 0.00 79 1018.1
20260506003536 39 0.0 1.0 0.00 0.02 0.00 78 1018.0
20260506003016 39 0.0 0.0 0.00 0.02 0.00 79 1018.0
20260506002536 39 0.0 1.0 0.00 0.02 0.00 79 1018.0
20260506002036 39 0.0 0.0 0.00 0.02 0.00 79 1018.1
20260506001515 39 0.0 1.0 0.00 0.02 0.00 80 1018.1
20260506001036 39 0.0 1.0 0.00 0.02 0.00 81 1018.1
20260506000536 39 0.0 1.0 0.00 0.02 0.00 81 1018.0
20260506000036 39 0.0 1.0 0.00 0.02 0.02 80 1018.1
20260505235516 39 0.0 0.0 0.00 0.02 0.02 79 1018.1
20260505235016 39 0.0 0.0 0.00 0.02 0.02 78 1018.1
20260505234516 39 0.0 1.0 0.00 0.02 0.02 79 1018.1
20260505234016 39 0.0 0.0 0.00 0.02 0.02 78 1018.1
20260505233536 39 0.0 0.0 0.00 0.02 0.02 78 1018.1
20260505233016 39 0.0 0.0 0.00 0.02 0.02 78 1018.2
20260505232516 40 0.0 1.0 0.00 0.02 0.02 78 1018.1
20260505232016 40 45 1.0 2.0 0.00 0.02 0.02 78 1018.1
20260505231516 40 45 2.0 2.0 0.00 0.02 0.02 78 1018.2
20260505231016 39 45 1.0 2.0 0.00 0.02 0.02 79 1018.1
20260505230536 39 0.0 1.0 0.00 0.02 0.02 79 1018.1
20260505230016 39 0.0 0.0 0.00 0.02 0.02 79 1018.2
20260505225536 39 0.0 1.0 0.00 0.02 0.02 79 1018.2
20260505225016 40 0.0 1.0 0.00 0.02 0.02 78 1018.2
20260505224516 40 0.0 0.0 0.00 0.02 0.02 78 1018.2
20260505224016 40 0.0 1.0 0.00 0.02 0.02 78 1018.2
20260505223516 40 45 1.0 3.0 0.00 0.02 0.02 78 1018.3
20260505223036 40 45 2.0 2.0 0.00 0.02 0.02 78 1018.3
20260505222516 40 68 1.0 2.0 0.00 0.02 0.02 78 1018.3
20260505222016 40 45 2.0 3.0 0.00 0.02 0.02 78 1018.4
20260505221536 40 45 2.0 3.0 0.00 0.02 0.02 79 1018.3
20260505221016 40 45 2.0 3.0 0.00 0.02 0.02 78 1018.3
20260505220516 40 0.0 3.0 0.00 0.02 0.02 78 1018.4
20260505220016 40 45 1.0 2.0 0.00 0.02 0.02 78 1018.4
20260505215516 40 45 1.0 2.0 0.00 0.02 0.02 79 1018.4
20260505215016 40 45 2.0 2.0 0.00 0.02 0.02 79 1018.3
20260505214516 40 45 1.0 2.0 0.00 0.02 0.02 79 1018.3
20260505214016 40 0.0 1.0 0.00 0.02 0.02 79 1018.4
20260505213516 40 0.0 1.0 0.00 0.02 0.02 79 1018.4
20260505213016 40 45 1.0 2.0 0.00 0.02 0.02 79 1018.3
20260505212516 40 45 2.0 2.0 0.00 0.02 0.02 79 1018.3
20260505212036 41 45 2.0 2.0 0.00 0.02 0.02 79 1018.4
20260505211516 41 45 1.0 2.0 0.00 0.02 0.02 79 1018.4
20260505211036 41 45 2.0 2.0 0.00 0.02 0.02 78 1018.4
20260505210516 41 68 1.0 2.0 0.00 0.02 0.02 78 1018.4
20260505210016 41 68 2.0 2.0 0.00 0.02 0.02 79 1018.3
20260505205516 41 68 2.0 3.0 0.00 0.02 0.02 78 1018.3
20260505205036 41 68 3.0 3.0 0.00 0.02 0.02 77 1018.3
20260505204516 41 68 2.0 3.0 0.00 0.02 0.02 78 1018.4
20260505204016 41 68 2.0 3.0 0.00 0.02 0.02 78 1018.4
20260505203516 42 68 1.0 2.0 0.00 0.02 0.02 78 1018.4
20260505203016 42 68 1.0 2.0 0.00 0.02 0.02 78 1018.3
20260505202516 42 68 2.0 3.0 0.00 0.02 0.02 77 1018.3
20260505202016 42 68 2.0 3.0 0.00 0.02 0.02 77 1018.3
20260505201516 42 68 1.0 2.0 0.00 0.02 0.02 76 1018.3
20260505201016 42 68 3.0 4.0 0.00 0.02 0.02 75 1018.3
20260505200516 42 90 4.0 5.0 0.00 0.02 0.02 75 1018.3
20260505200016 42 90 5.0 8.0 0.00 0.02 0.02 74 1018.3
20260505195516 42 113 5.0 7.0 0.00 0.02 0.02 74 1018.2
20260505195015 42 90 6.0 8.0 0.00 0.02 0.02 73 1018.2
20260505194516 42 90 6.0 8.0 0.00 0.02 0.02 74 1018.2
20260505194015 42 90 5.0 8.0 0.00 0.02 0.02 74 1018.2
20260505193516 42 90 5.0 7.0 0.00 0.02 0.02 74 1018.2
20260505193036 42 113 6.0 8.0 0.00 0.02 0.02 74 1018.2
20260505192536 43 113 5.0 8.0 0.00 0.02 0.02 74 1018.2
20260505192036 43 113 5.0 9.0 0.00 0.02 0.02 73 1018.2
20260505191515 43 113 6.0 8.0 0.00 0.02 0.02 73 1018.2
20260505191016 43 135 5.0 8.0 0.00 0.02 0.02 72 1018.1
20260505190516 43 113 5.0 7.0 0.00 0.02 0.02 73 1018.1
20260505190015 43 90 7.0 9.0 0.00 0.02 0.02 72 1018.0
20260505185535 43 113 6.0 9.0 0.00 0.02 0.02 72 1018.0
20260505185015 43 113 6.0 9.0 0.00 0.02 0.02 73 1018.0
20260505184515 43 113 7.0 10.0 0.00 0.02 0.02 72 1018.0
20260505184015 43 113 6.0 8.0 0.00 0.02 0.02 72 1018.0
20260505183516 43 113 6.0 9.0 0.00 0.02 0.02 73 1018.0
20260505183016 43 113 7.0 9.0 0.00 0.02 0.02 74 1018.0
20260505182515 43 113 5.0 9.0 0.00 0.02 0.02 74 1017.9
20260505182016 43 113 6.0 9.0 0.00 0.02 0.02 72 1018.0
20260505181516 43 113 7.0 13.0 0.00 0.02 0.02 72 1017.9
20260505181016 43 113 6.0 10.0 0.00 0.02 0.02 74 1017.8
20260505180516 43 113 7.0 11.0 0.00 0.02 0.02 73 1018.0
20260505180055 43 113 8.0 11.0 0.00 0.02 0.02 74 1018.0
20260505175536 43 113 6.0 10.0 0.00 0.02 0.02 74 1018.0
20260505175016 43 113 6.0 10.0 0.00 0.02 0.02 75 1017.9
20260505174516 43 113 8.0 12.0 0.00 0.02 0.02 74 1017.9
20260505174015 43 113 9.0 14.0 0.00 0.02 0.02 73 1017.9
20260505173515 43 113 8.0 11.0 0.00 0.02 0.02 74 1017.9
20260505173016 44 113 8.0 12.0 0.00 0.02 0.02 73 1017.8
20260505172515 44 113 10.0 14.0 0.00 0.02 0.02 73 1017.8
20260505172015 44 113 9.0 13.0 0.00 0.02 0.02 73 1017.8
20260505171535 44 113 9.0 13.0 0.00 0.02 0.02 73 1017.7
20260505171015 44 113 10.0 14.0 0.00 0.02 0.02 73 1017.7
20260505170535 44 135 10.0 13.0 0.00 0.02 0.02 73 1017.6
20260505170015 44 113 11.0 17.0 0.00 0.02 0.02 73 1017.6
20260505165515 45 135 10.0 15.0 0.00 0.02 0.02 74 1017.5
20260505165015 45 113 7.0 11.0 0.00 0.02 0.02 74 1017.4
20260505164515 45 135 7.0 11.0 0.00 0.02 0.02 74 1017.4
20260505164056 45 135 8.0 12.0 0.00 0.02 0.02 73 1017.4
20260505163515 45 158 6.0 9.0 0.00 0.02 0.02 74 1017.4
20260505163035 45 135 5.0 8.0 0.00 0.02 0.02 75 1017.3
20260505162515 45 113 7.0 10.0 0.00 0.02 0.02 74 1017.3
20260505162015 45 135 6.0 9.0 0.00 0.02 0.02 77 1017.3
20260505161536 45 135 6.0 10.0 0.00 0.02 0.02 75 1017.2
20260505161015 45 113 6.0 11.0 0.00 0.02 0.02 76 1017.2
20260505160515 45 135 6.0 10.0 0.00 0.02 0.02 76 1017.3
20260505153015 46 158 4.0 7.0 0.00 0.02 0.02 75 1017.1
20260505152515 47 135 5.0 9.0 0.00 0.02 0.02 76 1017.0
20260505152015 47 180 4.0 8.0 0.00 0.02 0.02 76 1017.0
20260505151515 46 180 4.0 7.0 0.00 0.02 0.02 76 1017.0
20260505151015 47 135 4.0 8.0 0.00 0.02 0.02 76 1017.0
20260505150515 46 203 4.0 6.0 0.00 0.02 0.02 78 1016.9
20260505140515 47 68 9.0 13.0 0.00 0.02 0.02 68 1016.6
20260505125037 48 68 7.0 13.0 0.00 0.02 0.02 66 1016.2
20260505124557 48 68 7.0 11.0 0.00 0.02 0.02 65 1016.2
20260505124017 48 68 8.0 11.0 0.00 0.02 0.02 65 1016.2
20260505123517 48 45 8.0 13.0 0.00 0.02 0.02 67 1016.2
20260505123017 48 45 9.0 13.0 0.00 0.02 0.02 67 1016.1
20260505122517 48 68 10.0 14.0 0.00 0.02 0.02 65 1016.1
20260505122017 48 45 7.0 11.0 0.00 0.02 0.02 67 1016.2
20260505121537 48 45 6.0 8.0 0.00 0.02 0.02 65 1016.1
20260505121057 48 45 5.0 7.0 0.00 0.02 0.02 65 1016.1
20260505120517 48 45 6.0 10.0 0.00 0.02 0.02 68 1016.0
20260505120017 48 68 8.0 11.0 0.00 0.02 0.02 67 1016.0
20260505115517 48 68 6.0 10.0 0.01 0.02 0.02 73 1016.1
20260505115017 47 68 9.0 13.0 0.01 0.02 0.02 70 1016.1
20260505114517 47 68 8.0 13.0 0.02 0.02 0.02 70 1016.0
20260505114117 47 68 7.0 10.0 0.02 0.02 0.02 74 1016.0
20260505113517 46 90 5.0 9.0 0.02 0.02 0.02 76 1016.0
20260505113037 46 45 3.0 6.0 0.02 0.02 0.02 76 1016.0
20260505112517 46 45 5.0 8.0 0.02 0.02 0.02 77 1016.1
20260505112017 45 45 5.0 8.0 0.02 0.02 0.02 79 1016.1
20260505111517 45 68 6.0 9.0 0.02 0.02 0.02 80 1016.1
20260505111016 44 45 7.0 10.0 0.02 0.02 0.02 79 1016.2
20260505110516 44 45 10.0 12.0 0.02 0.02 0.02 81 1016.2
20260505102016 49 45 13.0 18.0 0.00 0.00 0.00 70 1015.5
20260505101516 48 45 15.0 19.0 0.00 0.00 0.00 69 1015.6
20260505101016 48 45 15.0 19.0 0.00 0.00 0.00 67 1015.5
20260505100517 49 45 14.0 19.0 0.00 0.00 0.00 71 1015.4
20260505100016 49 45 14.0 19.0 0.00 0.00 0.00 67 1015.4
20260505095537 49 45 13.0 18.0 0.00 0.00 0.00 67 1015.4
20260505095016 50 45 11.0 19.0 0.00 0.00 0.00 68 1015.3
20260505094517 49 45 10.0 16.0 0.00 0.00 0.00 69 1015.3
20260505094016 48 45 10.0 15.0 0.00 0.00 0.00 68 1015.3
20260505093516 48 45 10.0 14.0 0.00 0.00 0.00 68 1015.4
20260505093016 48 45 6.0 13.0 0.00 0.00 0.00 67 1015.2
20260505092536 48 270 3.0 8.0 0.00 0.00 0.00 66 1015.2
20260505092017 49 315 3.0 8.0 0.00 0.00 0.00 65 1015.2
20260505091517 49 293 3.0 8.0 0.00 0.00 0.00 63 1015.2
20260505091017 49 293 3.0 7.0 0.00 0.00 0.00 63 1015.1
20260505090517 49 0 2.0 5.0 0.00 0.00 0.00 62 1015.0
20260505090017 49 293 2.0 6.0 0.00 0.00 0.00 63 1015.0
20260505085516 50 293 3.0 8.0 0.00 0.00 0.00 61 1014.8
20260505085016 50 293 3.0 9.0 0.00 0.00 0.00 61 1014.9
20260505084516 50 293 3.0 6.0 0.00 0.00 0.00 62 1014.8